Regional Weather Roundup
Issued by NWS Sterling, VA

Home | Current Version | Previous Version | Graphics & Text | Print | Product List | Glossary On
Versions: 1 2 3 4 5 6 7 8 9 10 11 12 13 14 15 16 17 18 19 20 21 22 23 24 25 26 27 28 29 30 31 32 33 34 35 36 37 38 39 40 41 42 43 44 45 46 47 48 49 50
000
ASUS41 KLWX 201810
RWRLWX

REGIONAL WEATHER ROUNDUP
NATIONAL WEATHER SERVICE BALTIMORE MD/WASHINGTON DC
100 PM EST FRI JAN 20 2017

Note: "FAIR" indicates few or no clouds below 12,000 feet
with no significant weather and/or obstructions to visibility.
 TC=TEMPERATURE CELSIUS

 * =Non NWS site. Station does not report precipitation (e.g. rain,
    snow, etc.), thunder, or fog.

DCZ001-MDZ009-015-VAZ040>042-051-053>054-201900-
WASHINGTON METRO

CITY           SKY/WX    TMP DP  RH WIND       PRES   REMARKS
WASHINGTON NAT CLOUDY    49  42  77 S8        29.91F
DULLES         LGT RAIN  45  42  89 S5        29.88F
ANDREWS AFB    CLOUDY    46  41  81 S7        29.89S
FT BELVOIR     LGT RAIN  46  41  81 S6        29.89F
QUANTICO       LGT RAIN  43  42  97 S5        29.91F
COLLEGE PARK*  CLOUDY    45  39  81 CALM      29.90F
LEESBURG*      CLOUDY    45  45 100 MISG      29.88F
MANASSAS*      LGT RAIN N/A N/A N/A S6        29.89F
GAITHERSBURG*  CLOUDY    43  37  81 SE9       29.92F

$$

MDZ006>007-011-014-201900-
BALTIMORE METRO

CITY           SKY/WX    TMP DP  RH WIND       PRES   REMARKS
BWI AIRPORT    LGT RAIN  43  41  93 SE5       29.91F FOG
MD SCIENCE CTR   N/A     44  38  79 MISG      29.94F
MARTIN STATE   CLOUDY    43  43 100 CALM      29.93F FOG
ANNAPOLIS      LGT RAIN  42  39  89 SE7       29.91F FOG
FORT MEADE*    CLOUDY    43  39  87 SE5       29.93S

$$

MDZ012-015-019>023-201900-
MARYLAND EASTERN SHORE

CITY           SKY/WX    TMP DP  RH WIND       PRES   REMARKS
OCEAN CITY     CLOUDY    46  43  89 E3        29.94F
SALISBURY      CLOUDY    47  41  80 SE3       29.93F
BAY BRIDGE AP* LGT RAIN  45  41  87 SE10      29.91F FOG
CAMBRIDGE*     MOSUNNY   45  41  87 SE5       29.91F

$$

MDZ017>025-201900-
SOUTHERN MARYLAND

CITY           SKY/WX    TMP DP  RH WIND       PRES   REMARKS
PATUXENT RIVER LGT RAIN  43  42  97 SE8       29.90F FOG
ST INIGOES     LGT RAIN  47  42  83 E6        29.90F
LEONARDTOWN*   CLOUDY    46  41  81 S3        29.93R

$$

MDZ003>005-201900-
NORTH CENTRAL MARYLAND

CITY           SKY/WX    TMP DP  RH WIND       PRES   REMARKS
FREDERICK*     CLOUDY    43  43 100 VRB3      29.92F FOG
HAGERSTOWN APT CLOUDY    43  39  86 S5        29.84F FOG
WESTMINSTER*   RAIN      41  39  93 SE5       29.87F

$$

MDZ501>502-201900-
WESTERN MARYLAND

CITY           SKY/WX    TMP DP  RH WIND       PRES   REMARKS
OAKLAND*         N/A     46  46 100 W8G17     29.76F FOG
CUMBERLAND*    PTSUNNY   43  39  87 CALM      29.85F

$$

VAZ025>031-201900-
SHENANDOAH VALLEY

CITY           SKY/WX    TMP DP  RH WIND       PRES   REMARKS
WINCHESTER*    CLOUDY    43  41  93 SE5       29.83F
FRONT ROYAL*   CLOUDY    48  45  87 CALM      29.81F
LURAY*         CLOUDY    54  46  76 SW10G20   29.81F
NEW MARKET*    CLOUDY    54  45  73 S15G21    29.81F
STAUNTON*      CLOUDY    51  46  85 SW5       29.85F
WAYNESBORO*    CLOUDY    49  45  86 NE3       29.84F

$$

WVZ021-048>050-054>055-201900-
EASTERN WEST VIRGINIA PANHANDLE

CITY           SKY/WX    TMP DP  RH WIND       PRES   REMARKS
MARTINSBURG    CLOUDY    44  41  89 CALM      29.84F FOG
PETERSBURG*    CLOUDY    48  44  86 CALM      29.79F

$$

VAZ036>039-050-201900-
CENTRAL FOOTHILLS

CITY           SKY/WX    TMP DP  RH WIND       PRES   REMARKS
CHARLOTTESVILL LGT RAIN  47  44  90 S5        29.86F
CULPEPER*      CLOUDY    49  46  90 S6        29.89F
ORANGE*          N/A     46  46 100 CALM      29.89F
GORDONSVILLE*  CLOUDY    46  45  97 S5        29.87F
WARRENTON*     CLOUDY    49  44  84 S6        29.87F

$$

VAZ055>057-201900-
NORTH AND CENTRAL PIEDMONT

CITY           SKY/WX    TMP DP  RH WIND       PRES   REMARKS
FREDERICKSBRG* CLOUDY    47  47 100 S6        29.90F
STAFFORD*      CLOUDY    45  45 100 S5        29.93F FOG

$$

NCZ024-NYZ072-PAZ021-071-VAZ022-071-201900-
OTHER REGIONAL OBSERVATIONS

CITY           SKY/WX    TMP DP  RH WIND       PRES   REMARKS
NEW YORK CITY  CLOUDY    45  33  63 VRB6      29.98F
PHILADELPHIA   LGT RAIN  40  36  86 E3        29.95F
PITTSBURGH     CLOUDY    52  51  97 SW8       29.70S
ROANOKE        CLOUDY    48  45  89 CALM      29.88F
RICHMOND       LGT RAIN  46  45  96 SW5       29.91F FOG
RALEIGH        CLOUDY    54  52  93 VRB3      29.86F FOG

$$

ANZ530>537-201900-
MARINE OBSERVATIONS

STATION/POSITION TIME  TEMP    WIND        PRES
                       AIR SEA DIR/SP/G
                 (UTC) (F)     (DEG/KT/KT) (MB)
THOMAS PT LIGHT  1800   42 40  140/  7/  7   N/A
BALT KEY BRIDGE  1748   40     120/  5/  6 1013.2F
COVE POINT       1742   41     160/ 11/ 13 1013.2F
LEWISETTA        1742   46 44  130/  9/ 10 1011.6F
SOLOMONS ISLAND  1742   42 41   80/  8/  9   N/A
PINEY POINT      1748          160/  5/  5   N/A

$$




USA.gov is the U.S. government's official web portal to all federal, state and local government web resources and services.